Weather History for Mt. Clemens, MI

Change the Weather History Date:

Wednesday, April 23, 2014

  Actual Average Record
Temperature  
Mean Temperature 44 °F -  
Max Temperature 53 °F 58 °F 87 °F (1960)
Min Temperature 35 °F 39 °F 24 °F (1986)
Degree Days  
Heating Degree Days 21    
Moisture  
Dew Point 27 °F    
Average Humidity 57    
Maximum Humidity 81    
Minimum Humidity 24    
Precipitation  
Precipitation 0.00 in - - ()
Sea Level Pressure  
Sea Level Pressure 30.06 in    
Wind  
Wind Speed 13 mph (NNW)    
Max Wind Speed 21 mph    
Max Gust Speed 29 mph    
Visibility 11 miles    
Events      
Averages and records for this station are not official NWS values.
T = Trace of Precipitation, MM = Missing Value Source: NWS Daily Summary

Daily Weather History Graph

Daily Weather History Graph

Search for Another Location

Airport:

Trip Planner

Search our weather history database for the weather conditions in past years. The results will help you decide how hot, cold, wet, or windy it might be!

Date:

Astronomy

Apr. 23, 2014 Rise Set
Actual Time 6:37 AM EDT 8:22 PM EDT
Civil Twilight 6:07 AM EDT 8:52 PM EDT
Nautical Twilight 5:31 AM EDT 9:29 PM EDT
Astronomical Twilight 4:52 AM EDT 10:08 PM EDT
Moon 3:16 AM EDT (4/23) 2:22 PM EDT (4/23)
Length of Visible Light 14h 44m
Length of Day
13h 44m
Waning Crescent, 35% of the Moon is Illuminated
Apr 23
Waning Crescent
Apr 29
New
May 6
First Quarter
May 14
Full
May 21
Last Quarter

Hourly Weather History & Observations

Time (EDT) Temp. Windchill Dew Point Humidity Pressure Visibility Wind Dir Wind Speed Gust Speed Precip Events Conditions
12:58 AM 39.4 °F 31.1 °F 30.7 °F 71% 29.95 in 10.0 mi NW 15.0 mph - N/A   Overcast
1:18 AM 39.2 °F 32.5 °F 32.0 °F 75% 29.93 in 10.0 mi NW 10.4 mph - N/A   Overcast
1:48 AM 39.2 °F 32.5 °F 32.0 °F 75% 29.93 in 10.0 mi NW 10.4 mph 18.4 mph N/A   Overcast
1:58 AM 39.0 °F 32.3 °F 30.7 °F 72% 29.95 in 10.0 mi NW 10.4 mph 23.0 mph N/A   Overcast
2:58 AM 38.5 °F 31.1 °F 30.7 °F 74% 29.95 in 10.0 mi NW 11.5 mph 23.0 mph N/A   Overcast
3:58 AM 38.3 °F 30.5 °F 30.4 °F 73% 29.96 in 10.0 mi NW 12.7 mph - N/A   Overcast
4:58 AM 38.3 °F 30.9 °F 30.4 °F 73% 29.97 in 10.0 mi NW 11.5 mph 19.6 mph N/A   Overcast
5:58 AM 38.1 °F 28.4 °F 30.7 °F 75% 30.01 in 10.0 mi NNW 18.4 mph 23.0 mph N/A   Overcast
6:13 AM 37.4 °F 28.9 °F 32.0 °F 81% 29.98 in 10.0 mi NNW 13.8 mph - N/A   Overcast
6:43 AM 37.4 °F 26.9 °F 30.2 °F 75% 30.00 in 10.0 mi NNW 20.7 mph 28.8 mph N/A   Overcast
6:58 AM 37.9 °F 29.6 °F 30.7 °F 75% 30.04 in 10.0 mi NNW 13.8 mph - N/A   Overcast
7:55 AM 38.1 °F 30.7 °F 30.4 °F 74% 30.06 in 10.0 mi NNW 11.5 mph - N/A   Overcast
8:55 AM 39.2 °F 30.5 °F 28.6 °F 66% 30.09 in 10.0 mi NNW 16.1 mph - N/A   Overcast
9:55 AM 40.5 °F 32.1 °F 28.2 °F 62% 30.09 in 10.0 mi NNW 16.1 mph 23.0 mph N/A   Mostly Cloudy
10:13 AM 42.8 °F 35.8 °F 28.4 °F 57% 30.06 in 10.0 mi North 13.8 mph - N/A   Mostly Cloudy
10:55 AM 45.7 °F 38.3 °F 29.8 °F 54% 30.10 in 10.0 mi NNW 18.4 mph 24.2 mph N/A   Mostly Cloudy
11:55 AM 46.0 °F 39.6 °F 29.7 °F 53% 30.11 in 10.0 mi NNW 15.0 mph - N/A   Scattered Clouds
12:55 PM 48.6 °F - 27.9 °F 45% 30.11 in 12.0 mi North 16.1 mph 21.9 mph N/A   Partly Cloudy
1:55 PM 51.3 °F - 28.2 °F 41% 30.11 in 12.0 mi NNW 16.1 mph 19.6 mph N/A   Partly Cloudy
2:55 PM 52.3 °F - 26.2 °F 36% 30.11 in 12.0 mi NNW 8.1 mph 21.9 mph N/A   Partly Cloudy
3:55 PM 53.2 °F - 21.4 °F 29% 30.11 in 12.0 mi NNW 16.1 mph - N/A   Partly Cloudy
4:55 PM 53.1 °F - 18.1 °F 25% 30.11 in 12.0 mi North 8.1 mph 19.6 mph N/A   Partly Cloudy
5:55 PM 51.8 °F - 17.1 °F 25% 30.11 in 12.0 mi North 10.4 mph 18.4 mph N/A   Scattered Clouds
6:55 PM 50.2 °F - 14.2 °F 24% 30.12 in 12.0 mi North 10.4 mph - N/A   Mostly Cloudy
7:55 PM 45.1 °F 41.4 °F 23.2 °F 42% 30.12 in 12.0 mi East 6.9 mph - N/A   Mostly Cloudy
8:58 PM 41.2 °F 35.5 °F 25.0 °F 53% 30.13 in 10.0 mi ENE 9.2 mph - N/A   Clear
9:58 PM 40.8 °F 35.6 °F 20.1 °F 44% 30.15 in 10.0 mi ENE 8.1 mph - N/A   Clear
10:58 PM 35.4 °F 29.7 °F 18.1 °F 49% 30.15 in 10.0 mi ENE 6.9 mph - N/A   Clear
11:58 PM 35.8 °F - 15.8 °F 44% 30.16 in 10.0 mi North 2.3 mph - N/A   Clear